Location: Coupvray
(48.8929°N, 2.7967°E)
Time: 19:15:59
(UTC+00:00)

BREEZE-M DEB (TANK) - Pass Details

Date: 14 July 2020
Orbit: 428 x 13237 km, 46.0° (Epoch: 14 August)

Event Time Altitude Azimuth Distance (km) Brightness Sun altitude
Rises 00:02:23 0° 246° (WSW) 7,824 8.4 -19.5°
Reaches altitude 10° 00:09:33 10° 244° (WSW) 5,061 7.4 -19.4°
Maximum altitude 00:19:43 54° 170° (S) 1,094 3.9 -19.3°
Drops below altitude 10° 00:23:26 10° 92° (E) 1,898 5.6 -19.2°
Sets 00:24:58 0° 86° (E) 2,581 6.4 -19.2°
